Weather History for KZZV - December, 2013

Change the Weather History Date:

Friday, December 6, 2013

  Actual Average Record
Temperature  
Mean Temperature 32 °F 35 °F  
Max Temperature 36 °F 44 °F 71 °F (1998)
Min Temperature 28 °F 27 °F 1 °F (2007)
Degree Days  
Heating Degree Days 33 30  
Month to date heating degree days 142 173  
Since 1 July heating degree days 1318 1314  
Cooling Degree Days 0 0  
Month to date cooling degree days 0 0  
Year to date cooling degree days 856 768  
Moisture  
Dew Point 29 °F    
Average Humidity 87    
Maximum Humidity 92    
Minimum Humidity 82    
Precipitation  
Precipitation 0.23 in 0.09 in 1.45 in (1971)
Month to date precipitation 1.34 0.53  
Year to date precipitation 36.10 35.81  
Sea Level Pressure  
Sea Level Pressure 30.18 in    
Wind  
Wind Speed 6 mph (North)    
Max Wind Speed 13 mph    
Max Gust Speed 16 mph    
Visibility 2 miles    
Events Fog , Rain , Snow    
T = Trace of Precipitation, MM = Missing Value Source: NWS Daily Summary

Daily Weather History Graph

Daily Weather History Graph

Search for Another Location

Airport or City:

Trip Planner

Search our weather history database for the weather conditions in past years. The results will help you decide how hot, cold, wet, or windy it might be!

Date:

Astronomy

Dec. 06, 2013 Rise Set
Actual Time 7:35 AM EST 5:02 PM EST
Civil Twilight 7:04 AM EST 5:32 PM EST
Nautical Twilight 6:31 AM EST 6:06 PM EST
Astronomical Twilight 5:58 AM EST 6:39 PM EST
Moon 10:39 AM EST (12/6) 9:32 PM EST (12/6)
Length of Visible Light 10h 27m
Length of Day
9h 27m
Waxing Crescent, 19% of the Moon is Illuminated
Dec 6
Waxing Crescent
Dec 9
First Quarter
Dec 17
Full
Dec 25
Last Quarter
Jan 1
New

Hourly Weather History & Observations

Time (EST) Temp. Windchill Dew Point Humidity Pressure Visibility Wind Dir Wind Speed Gust Speed Precip Events Conditions
12:02 AM 35.6 °F 28.6 °F 32.0 °F 87% 30.09 in 2.5 mi NNW 9.2 mph - 0.02 in Rain Rain
12:09 AM 35.6 °F 29.2 °F 32.0 °F 87% 30.12 in 3.0 mi NW 8.1 mph - 0.02 in Rain Light Rain
12:17 AM 35.6 °F 29.2 °F 32.0 °F 87% 30.10 in 2.5 mi NNW 8.1 mph - 0.03 in Rain Light Rain
12:28 AM 35.6 °F 30.7 °F 32.0 °F 87% 30.09 in 3.0 mi NNW 5.8 mph - 0.03 in Rain Light Rain
12:35 AM 35.6 °F 29.9 °F 32.0 °F 87% 30.09 in 4.0 mi NNW 6.9 mph - 0.03 in   Overcast
12:53 AM 35.1 °F 29.3 °F 32.0 °F 89% 30.14 in 4.0 mi WNW 6.9 mph - 0.04 in Rain Light Rain
1:03 AM 35.6 °F 30.7 °F 32.0 °F 87% 30.10 in 1.8 mi North 5.8 mph - 0.03 in Rain Rain
1:13 AM 35.6 °F 30.7 °F 32.0 °F 87% 30.11 in 2.5 mi NNW 5.8 mph - 0.03 in Rain Light Rain
1:15 AM 35.6 °F 30.7 °F 32.0 °F 87% 30.10 in 3.0 mi NNW 5.8 mph - 0.03 in Rain Light Rain
1:31 AM 35.6 °F 28.6 °F 32.0 °F 87% 30.08 in 3.0 mi North 9.2 mph - 0.04 in Rain Light Rain
1:42 AM 33.8 °F 26.4 °F 30.2 °F 87% 30.10 in 5.0 mi North 9.2 mph - 0.04 in Rain Light Rain
1:53 AM 34.0 °F 27.2 °F 30.0 °F 85% 30.09 in 5.0 mi North 8.1 mph - 0.04 in Rain Light Rain
2:20 AM 33.8 °F 30.8 °F 30.2 °F 87% 30.10 in 5.0 mi North 3.5 mph - 0.00 in   Overcast
2:53 AM 34.0 °F 28.8 °F 30.9 °F 89% 30.15 in 4.0 mi NNW 5.8 mph - 0.00 in   Overcast
3:42 AM 33.8 °F 30.8 °F 30.2 °F 87% 30.10 in 2.5 mi North 3.5 mph - N/A   Overcast
3:53 AM 34.0 °F 31.0 °F 30.9 °F 89% 30.13 in 3.0 mi North 3.5 mph - N/A   Overcast
4:05 AM 33.8 °F 30.8 °F 30.2 °F 87% 30.11 in 3.0 mi North 3.5 mph - N/A   Overcast
4:27 AM 33.8 °F 28.6 °F 30.2 °F 87% 30.13 in 3.0 mi North 5.8 mph - 0.01 in Rain Light Rain
4:53 AM 34.0 °F 28.0 °F 30.9 °F 89% 30.15 in 2.0 mi NNW 6.9 mph - 0.03 in Rain Light Rain
5:27 AM 33.8 °F 28.6 °F 30.2 °F 87% 30.17 in 2.5 mi NW 5.8 mph - 0.02 in Rain Light Rain
5:40 AM 33.8 °F 29.6 °F 30.2 °F 87% 30.18 in 2.0 mi NW 4.6 mph - 0.04 in Rain Light Rain
5:53 AM 33.1 °F 28.7 °F 30.9 °F 92% 30.17 in 2.0 mi North 4.6 mph - 0.06 in Rain Light Rain
6:32 AM 33.8 °F 29.6 °F 30.2 °F 87% 30.15 in 2.5 mi North 4.6 mph - 0.02 in Rain Light Rain
6:53 AM 33.1 °F - 30.9 °F 92% 30.17 in 2.5 mi Calm Calm - 0.02 in   Overcast
7:23 AM 33.8 °F - 30.2 °F 87% 30.15 in 2.5 mi Calm Calm - N/A   Overcast
7:25 AM 33.8 °F 30.8 °F 30.2 °F 87% 30.15 in 3.0 mi North 3.5 mph - N/A   Overcast
7:53 AM 34.0 °F 28.0 °F 30.9 °F 89% 30.19 in 3.0 mi NNW 6.9 mph - N/A   Overcast
8:53 AM 33.1 °F 27.7 °F 30.0 °F 89% 30.21 in 4.0 mi North 5.8 mph - N/A   Overcast
9:53 AM 33.1 °F 28.7 °F 30.0 °F 89% 30.21 in 4.0 mi North 4.6 mph - N/A   Overcast
10:33 AM 33.8 °F 27.7 °F 28.4 °F 81% 30.18 in 8.0 mi North 6.9 mph - N/A   Overcast
10:50 AM 33.8 °F 28.6 °F 28.4 °F 81% 30.18 in 7.0 mi North 5.8 mph - N/A   Overcast
10:53 AM 33.1 °F 25.5 °F 28.9 °F 85% 30.21 in 7.0 mi North 9.2 mph - N/A   Overcast
11:53 AM 33.1 °F 26.1 °F 28.0 °F 82% 30.22 in 5.0 mi North 8.1 mph - N/A   Haze
12:21 PM 33.8 °F 27.7 °F 28.4 °F 81% 30.16 in 2.5 mi NNW 6.9 mph - 0.01 in Rain Light Rain
12:32 PM 32.0 °F 24.2 °F 28.4 °F 87% 30.17 in 3.0 mi North 9.2 mph - 0.01 in   Overcast
12:53 PM 32.0 °F 24.2 °F 28.0 °F 85% 30.19 in 3.0 mi North 9.2 mph - 0.01 in   Overcast
1:14 PM 32.0 °F 25.6 °F 28.4 °F 87% 30.17 in 2.5 mi North 6.9 mph - 0.01 in   Overcast
1:50 PM 32.0 °F 24.2 °F 28.4 °F 87% 30.14 in 2.5 mi North 9.2 mph - 0.02 in Rain Light Freezing Rain
1:53 PM 32.0 °F 24.8 °F 28.0 °F 85% 30.18 in 2.5 mi North 8.1 mph 16.1 mph 0.02 in Rain Light Freezing Rain
2:10 PM 32.0 °F 24.8 °F 28.4 °F 87% 30.15 in 3.0 mi North 8.1 mph - 0.00 in Rain Light Freezing Rain
2:18 PM 32.0 °F 26.4 °F 28.4 °F 87% 30.16 in 4.0 mi North 5.8 mph - 0.00 in   Overcast
2:44 PM 32.0 °F 23.0 °F 28.4 °F 87% 30.16 in 2.0 mi NNE 11.5 mph - 0.01 in Rain Light Freezing Rain
2:50 PM 32.0 °F 26.4 °F 26.6 °F 80% 30.15 in 1.5 mi NNE 5.8 mph - 0.01 in Rain Light Freezing Rain
2:53 PM 32.0 °F 24.8 °F 28.0 °F 85% 30.17 in 1.5 mi NNE 8.1 mph - 0.01 in Rain Light Freezing Rain
3:11 PM 30.2 °F 23.4 °F 28.4 °F 93% 30.14 in 2.0 mi North 6.9 mph - 0.00 in Rain Light Freezing Rain
3:21 PM 30.2 °F 24.3 °F 28.4 °F 93% 30.15 in 3.0 mi North 5.8 mph - 0.00 in   Overcast
3:34 PM 30.2 °F 22.6 °F 28.4 °F 93% 30.13 in 2.0 mi NNE 8.1 mph - 0.00 in   Overcast
3:38 PM 30.2 °F 23.4 °F 28.4 °F 93% 30.13 in 1.8 mi North 6.9 mph - 0.00 in Rain Light Freezing Rain
3:53 PM 32.0 °F 25.6 °F 28.0 °F 85% 30.16 in 1.8 mi North 6.9 mph - 0.01 in Rain Light Freezing Rain
3:59 PM 30.2 °F 22.6 °F 28.4 °F 93% 30.13 in 2.0 mi North 8.1 mph - 0.00 in Rain Light Freezing Rain
4:23 PM 30.2 °F 23.4 °F 28.4 °F 93% 30.19 in 3.0 mi North 6.9 mph - 0.00 in   Overcast
4:36 PM 30.2 °F 23.4 °F 28.4 °F 93% 30.16 in 1.8 mi North 6.9 mph - 0.00 in Snow Light Snow
4:40 PM 30.2 °F 22.6 °F 28.4 °F 93% 30.17 in 0.8 mi North 8.1 mph - 0.00 in Snow Light Snow
4:53 PM 30.9 °F 25.2 °F 28.0 °F 89% 30.21 in 0.8 mi North 5.8 mph - 0.00 in Snow Light Snow
5:04 PM 30.2 °F 23.4 °F 28.4 °F 93% 30.18 in 0.5 mi North 6.9 mph - 0.00 in Fog , Snow Snow
5:44 PM 30.2 °F 22.6 °F 26.6 °F 86% 30.19 in 0.5 mi North 8.1 mph - 0.00 in Fog , Snow Snow
5:53 PM 30.0 °F 23.2 °F 27.0 °F 88% 30.22 in 0.5 mi NNW 6.9 mph - 0.00 in Fog , Snow Snow
6:00 PM 30.2 °F 24.3 °F 26.6 °F 86% 30.19 in 0.5 mi North 5.8 mph - 0.00 in Fog , Snow Snow
6:33 PM 30.2 °F 25.4 °F 26.6 °F 86% 30.21 in 0.5 mi North 4.6 mph - 0.00 in Fog , Snow Snow
6:53 PM 28.9 °F 21.1 °F 27.0 °F 92% 30.25 in 0.5 mi NNE 8.1 mph - 0.00 in Fog , Snow Snow
7:20 PM 28.4 °F 23.3 °F 26.6 °F 93% 30.23 in 0.8 mi North 4.6 mph - 0.00 in Snow Light Snow
7:29 PM 28.4 °F 21.2 °F 26.6 °F 93% 30.26 in 0.8 mi NNW 6.9 mph - 0.00 in Snow Light Snow
7:45 PM 30.2 °F 25.4 °F 26.6 °F 86% 30.25 in 0.8 mi North 4.6 mph - 0.00 in Snow Light Snow
7:53 PM 30.0 °F 26.5 °F 27.0 °F 88% 30.25 in 0.8 mi NNE 3.5 mph - 0.00 in Snow Light Snow
8:21 PM 28.4 °F 21.2 °F 26.6 °F 93% 30.24 in 1.2 mi NNE 6.9 mph - 0.00 in Snow Light Snow
8:30 PM 28.4 °F 22.2 °F 26.6 °F 93% 30.25 in 1.5 mi NNW 5.8 mph - 0.00 in Snow Light Snow
8:48 PM 28.4 °F 21.2 °F 26.6 °F 93% 30.25 in 1.0 mi NNW 6.9 mph - 0.00 in Snow Light Snow
8:53 PM 28.9 °F 21.1 °F 26.1 °F 89% 30.30 in 1.0 mi NNW 8.1 mph - 0.00 in Snow Light Snow
9:06 PM 28.4 °F 22.2 °F 26.6 °F 93% 30.26 in 0.8 mi North 5.8 mph - 0.00 in Snow Light Snow
9:28 PM 28.4 °F 23.3 °F 26.6 °F 93% 30.25 in 0.8 mi North 4.6 mph - 0.00 in Snow Light Snow
9:51 PM 28.4 °F 20.4 °F 24.8 °F 86% 30.27 in 1.0 mi North 8.1 mph - 0.00 in Snow Light Snow
9:53 PM 28.0 °F 19.3 °F 25.0 °F 88% 30.31 in 1.2 mi NNW 9.2 mph - 0.00 in Snow Light Snow
9:56 PM 28.4 °F 19.7 °F 24.8 °F 86% 30.29 in 1.5 mi NNW 9.2 mph - 0.00 in Snow Light Snow
10:05 PM 28.4 °F 19.1 °F 24.8 °F 86% 30.29 in 2.0 mi NNW 10.4 mph - 0.00 in Snow Light Snow
10:17 PM 28.4 °F 22.2 °F 24.8 °F 86% 30.29 in 2.5 mi NNW 5.8 mph - 0.00 in Snow Light Snow
10:27 PM 28.4 °F 20.4 °F 24.8 °F 86% 30.30 in 1.8 mi NNW 8.1 mph - 0.00 in Snow Light Snow
10:37 PM 28.4 °F 19.7 °F 24.8 °F 86% 30.30 in 2.0 mi North 9.2 mph - 0.00 in Snow Light Snow
10:53 PM 28.0 °F 21.7 °F 24.1 °F 85% 30.33 in 3.0 mi North 5.8 mph - 0.00 in   Overcast
11:53 PM 28.0 °F - 24.1 °F 85% 30.35 in 7.0 mi Calm Calm - N/A   Overcast